Flag for U.S.A. Weather past 2 weeks in Bismarck, North Dakota, U.S.A.

Now
-1 °F

Light snow. Overcast.


Feels Like: -21 °F
Forecast: -2 / 9 °F
Wind: 16 mph from Northeast

Location: Bismarck Municipal Airport

Current Time: Jan 31, 2015 at 10:53:09 PM

Latest Report: Jan 31, 2015 at 10:00 PM


Visibility: 1 mi

Pressure: 30.40 "Hg

Humidity: 75%

Dew point: -7 °F

Location of BismarckLocation

Historic Weather in Bismarck — Graph

°F

Bismarck temperature yesterday

Maximum temperature yesterday: 47 °F (at 2:52 PM)
Minimum temperature yesterday: 17 °F (at 12:52 AM)
Average temperature yesterday: 29 °F

Past Weeks' High & Low Weather Summary

 TemperatureHumidityPressure
High51 °F (Jan 27, 2:52 PM)100% (Jan 28, 4:52 AM)30.57 "Hg (Jan 28, 4:52 AM)
Low0 °F (Jan 31, 8:52 PM)39% (Jan 27, 4:52 PM)29.57 "Hg (Jan 17, 12:52 AM)
Average31 °F79%30.04 "Hg
* Reported Jan 16 8:52 PM — Jan 31 8:52 PM, Bismarck, Weather by CustomWeather, © 2014

Note: Actual official high and low records may vary slightly from our data, if they occured in-between our weather recording intervals... More about our weather records

Advertising

Bismarck weather history for previous 24 hours

 ConditionsComfort  
Time TempWeatherWind HumidityBarometerVisibility
8:52 PM
Jan 31
0 °FLight snow. Overcast.18 mph79%30.50 "Hg1 mi
7:52 PM2 °FLight snow. Overcast.21 mph76%30.50 "Hg2 mi
6:52 PM4 °FLight snow. Overcast.18 mph76%30.47 "Hg4 mi
5:52 PM7 °FLight snow. Mostly cloudy.17 mph73%30.44 "Hg4 mi
4:52 PM9 °FOvercast.16 mph64%30.41 "Hg10 mi
3:52 PM11 °FOvercast.17 mph67%30.38 "Hg10 mi
2:52 PM14 °FMostly cloudy.14 mph58%30.37 "Hg10 mi
1:52 PM15 °FScattered clouds.20 mph61%30.37 "Hg10 mi
12:52 PM15 °FPassing clouds.15 mph61%30.37 "Hg10 mi
11:52 AM14 °FOvercast.21 mph73%30.38 "Hg10 mi
10:52 AM13 °FLight snow. Mostly cloudy.18 mph77%30.38 "Hg5 mi
10:04 AM13 °FLight snow. Ice fog.16 mph84%30.28 "Hg2 mi
8:52 AM15 °FLow clouds.15 mph87%30.35 "Hg10 mi
7:52 AM17 °FLow clouds.16 mph88%30.33 "Hg10 mi
6:52 AM20 °FLow clouds.16 mph89%30.30 "Hg9 mi
5:52 AM22 °FIce fog.16 mph92%30.27 "Hg5 mi
4:52 AM24 °FLow clouds.10 mph91%30.28 "Hg8 mi
3:52 AM23 °FLow clouds.7 mph96%30.29 "Hg8 mi
2:52 AM23 °FLow clouds.10 mph96%30.27 "Hg9 mi
1:52 AM24 °FIce fog.13 mph96%30.25 "Hg6 mi
12:52 AM24 °FLow clouds.10 mph91%30.26 "Hg8 mi
11:52 PM
Jan 30
26 °FLow clouds.14 mph92%30.26 "Hg7 mi
10:52 PM27 °FOvercast.8 mph89%30.25 "Hg7 mi
Weather by CustomWeather, © 2014

See weather overviewHow to use our weather pages